Voltar ao catálogo

STARLINK-30754

AtivoComunicaçõesVLEO
NORAD 58124·PAYLOAD·🇺🇸 United States

Lançado Oct 22, 2023 de Cape Canaveral Space Force Station

Loading…

Próximas Passagens (próximas 24 horas)

TLE

AtualizadoSource: CelesTrak SupGP

Época: Sep 15, 2026, 02:58 UTC

1 58124C 23162G   26258.12409722  .00059786  00000+0  21656-2 0  2588
2 58124  43.0009 142.5944 0001475 279.5156 285.8722 15.27545732    15

Acompanhe STARLINK-30754 em tempo real com AllMySat

Download on the App Store